Regional Weather Roundup
Issued by NWS New Orleans/Baton Rouge, LA

Home | Current Version | Previous Version | Graphics & Text | Print | Product List | Glossary On
Versions: 1 2 3 4 5 6 7 8 9 10 11 12 13 14 15 16 17 18 19 20 21 22 23 24 25 26 27 28 29 30 31 32 33 34 35 36 37 38 39 40 41 42 43 44 45 46 47 48 49 50
216
ASUS44 KLIX 211510
RWRLIX
NEW ORLEANS REGIONAL WEATHER ROUNDUP
NATIONAL WEATHER SERVICE NEW ORLEANS LA
1000 AM CDT THU AUG 21 2014

NOTE: "FAIR" INDICATES FEW OR NO CLOUDS BELOW 12,000 FEET WITH NO
      SIGNIFICANT WEATHER AND/OR OBSTRUCTIONS TO VISIBILITY.
      SKY/WX - SKY CONDITION AND SIGNIFICANT WEATHER.
      TMP - AIR TEMPERATURE.     DP    - DEWPOINT TEMPERATURE.
      RH  - RELATIVE HUMIDITY.   PRES  - PRESSURE.
      HI  - HEAT INDEX.          WCI   - WIND CHILL INDEX.

*  THESE STATIONS ARE NOT NWS OR FAA STATIONS AND ARE NOT UNDER
   NWS QUALITY CONTROL.

LAZ038-040-048-061>063-065>067-069-211600-
SOUTHEAST LOUISIANA

CITY           SKY/WX    TMP DP  RH WIND       PRES   REMARKS
N.O. AUDUBON     N/A     90  80  71 MISG        N/A  HX 107
N.O. INTL ARPT PTSUNNY   88  77  69 CALM      30.14R HX 100
N.O. LAKEFRONT SUNNY     88  77  69 N5        30.15R HX 100
N.O. DOWNTOWN*   N/A     88  73  62 CALM      30.15S HX  96
SLIDELL        SUNNY     88  76  67 CALM      30.14S HX  99
BATON ROUGE    PTSUNNY   85  76  74 CALM      30.14S
BOOTHVILLE     SUNNY     87  75  67 VRB5      30.15R HX  96
BELLE CHASSE   PTSUNNY   87  74  64 S5        30.14R HX  95
BOGALUSA*        N/A     87  76  70 CALM      30.16S HX  97
GALLIANO*      NOT AVBL
NEW ROADS*       N/A     83  78  83 CALM      30.14S
GONZALES*        N/A     87  81  83 S3        30.13S HX 103
HAMMOND*       MOSUNNY   90  73  58 SW3       30.16R HX  98
HOUMA*         MOSUNNY   88  75  66 CALM      30.14R HX  97
PORT FOURCHON* MOSUNNY   88  75  66 SW5       30.16R HX  97

$$

MSZ070-080>082-211600-
SOUTHERN MISSISSIPPI

CITY           SKY/WX    TMP DP  RH WIND       PRES   REMARKS
MCCOMB         SUNNY     87  75  67 SW8       30.15S HX  96
GULFPORT       MOSUNNY   87  74  64 CALM      30.14S HX  95
BILOXI         SUNNY     89  76  64 NW3       30.15S HX 100
PASCAGOULA     SUNNY     88  75  65 N6        30.15S HX  97
STENNIS ARPT*  MOSUNNY  N/A N/A N/A CALM      30.15S

$$

COASTAL OBSERVATIONS
LAKE AND NEARSHORE STATIONS

STATION/POSITION TIME  TEMP    WIND        PRES    WAVE
                       AIR SEA DIR/SP/G            HT/PER
                 (UTC) (F)     (DEG/KT/KT) (MB)    (FT/S)
PASCAGOULA       1500   87     360/  5/  6 1020.6
WAVELAND YACHT   1500   84      30/  4/  5 1020.2
GRAND ISLE       1500   87 87  150/  4/  5 1021.5
SOUTHWEST PASS   1500   89 88  180/  1/  2 1021.3
NEW CANAL        1500   85 83   30/  4/  5 1021.1
SHELL BEACH      1500   84 82   10/  3/  4 1020.8

OFFSHORE STATIONS

STATION/POSITION TIME  TEMP    WIND        PRES    WAVE
                       AIR SEA DIR/SP/G            HT/PER
                 (UTC) (F)     (DEG/KT/KT) (MB)    (FT/S)
64 S DAUPHIN ISL 1417   85 89  340/  4/  4 1021.3

$$




USA.gov is the U.S. government's official web portal to all federal, state and local government web resources and services.